{"data":{"norad_id":68653,"intl_designator":"2026-075T","name":"QIANFAN-126","alt_names":[],"object_type":"PAYLOAD","status":"ACTIVE","operator":null,"country":"PRC","launch_date":"2026-04-07","launch_site_code":"WSC","launch_vehicle":null,"mission":null,"orbit_class":"UNKNOWN","rcs_meters":null,"size_class":null,"mass_kg":null,"dimensions":null,"purposes":[],"wikipedia_slug":null,"has_3d_model":false,"image_url":null,"decayed_at":null,"tle_current":{"epoch":"2026-09-19T22:25:33.951072Z","epoch_age_seconds":112087,"freshness":"FRESH","line1":"1 68653U 26075T   26262.93442073  .00000053  00000+0  62937-4 0  9996","line2":"2 68653  88.9868 311.2916 0002070  82.2150 277.9236 13.51029394 22622","mean_motion":13.51029394,"eccentricity":0.000207,"inclination_deg":88.9868,"raan_deg":311.2916,"arg_perigee_deg":82.215,"mean_anomaly_deg":277.9236,"bstar":6.2937e-5,"rev_number":2262,"period_min":106.5853938038,"perigee_km":1066.9321255672,"apogee_km":1070.0150223448,"semimajor_km":7446.610573956,"source":"CELESTRAK","updated_at":"2026-09-20T09:00:24.372853Z"}}}